Location: PSU-Greenbush Astrophysical Observatory
(37.5140°N, 94.9880°W)
Time: 21:43:58
(UTC-06:00)

Altair - Pass Details

Date: 02 February 2020
Orbit: 1502 x 1682 km, 47.2° (Epoch: 18 February)

Event Time Altitude Azimuth Distance (km) Brightness Sun altitude
Rises 06:18:24 0° 231° (SW) 4,785 9.7 -13.1°
Reaches altitude 10° 06:21:26 10° 231° (SW) 3,825 9.2 -12.5°
Maximum altitude 06:31:17 84° 145° (SE) 1,664 7.7 -10.6°
Drops below altitude 10° 06:41:27 10° 59° (ENE) 3,942 10.3 -8.7°
Sets 06:44:38 0° 59° (ENE) 4,937 10.9 -8.1°
